DW8494 Seminole FL US current weather conditions

sailwx.info

Wind from 351 at 0 knots gusting 5

Air temperature 13.3° C
Dewpoint 11.9° C

Last reported at 2019-Nov-17 18:00 UTC.
Time now 2019-Nov-17 18:19 UTC

Location: N 27°51' W 082°47'.
View on Google Maps.

See reports from other nearby stations

  
Tides and Currents Weather Stations Pressure Air Temp Water Temp Dewpoint Dewpoint Depression Visibility Wind Speed Wind Dir Waves Ship Positions
date/time (UTC)wind fromknots sea level pressurealtimeterstation pressurevisibilityair tempwater tempwave heightnotes
2019-Nov-17 18:00 351 0 gusting 5 13.3
2019-Nov-17 17:45 339 0 gusting 4 13.3
2019-Nov-17 17:31 351 13.3
2019-Nov-17 17:15 292 0 gusting 4 13.3
2019-Nov-17 17:01 269 13.3
2019-Nov-17 16:46 293 0 gusting 5 13.3
2019-Nov-17 16:30 273 1 gusting 6 13.3
2019-Nov-17 16:15 250 1 gusting 6 13.3
2019-Nov-17 16:00 276 13.3
2019-Nov-17 15:45 332 12.8
2019-Nov-17 15:30 321 12.8
2019-Nov-17 15:15 293 12.2
2019-Nov-17 15:00 328 11.7
2019-Nov-17 14:45 018 0 gusting 4 11.7
2019-Nov-17 14:30 355 11.7
2019-Nov-17 14:15 345 0 gusting 5 11.7
2019-Nov-17 14:01 360 0 gusting 3 11.7
2019-Nov-17 13:48 331 11.1
2019-Nov-17 13:31 360 0 gusting 5 11.1
2019-Nov-17 13:17 288 0 gusting 4 11.1
2019-Nov-17 13:02 340 11.1
2019-Nov-17 12:46 290 11.1
2019-Nov-17 12:31 333 11.1
2019-Nov-17 12:16 330 1 gusting 6 10.6
2019-Nov-17 12:01 338 0 gusting 7 10.6
2019-Nov-17 11:46 334 0 gusting 4 10.6
2019-Nov-17 11:31 338 0 gusting 5 10.6
2019-Nov-17 11:16 015 0 gusting 5 10.6
2019-Nov-17 11:01 005 0 gusting 5 11.1
2019-Nov-17 10:46 307 0 gusting 4 11.1
2019-Nov-17 10:31 286 10.6
2019-Nov-17 10:15 348 10.6
2019-Nov-17 10:01 309 10.6
2019-Nov-17 09:45 348 0 gusting 6 10.6
2019-Nov-17 09:30 343 2 gusting 6 10.6
2019-Nov-17 09:15 317 10.6
2019-Nov-17 09:00 298 10.6
2019-Nov-17 08:45 334 0 gusting 4 10.6
2019-Nov-17 08:30 338 0 gusting 4 10.6
2019-Nov-17 08:15 313 10.6
2019-Nov-17 08:01 304 10.6
2019-Nov-17 07:45 298 10.6
2019-Nov-17 07:30 338 0 gusting 5 10.6
2019-Nov-17 07:15 346 0 gusting 5 10.0
2019-Nov-17 07:00 288 0 gusting 4 10.0
2019-Nov-17 06:45 259 0 gusting 6 10.0
2019-Nov-17 06:30 032 0 gusting 6 10.0
2019-Nov-17 06:15 305 1 gusting 8 10.6
2019-Nov-17 06:00 355 0 gusting 7 10.6
2019-Nov-17 05:45 277 0 gusting 4 10.6
2019-Nov-17 05:30 325 0 gusting 6 10.6
2019-Nov-17 05:16 334 1 gusting 6 10.6
2019-Nov-17 05:02 355 0 gusting 5 10.6
2019-Nov-17 04:46 263 0 gusting 6 10.6
2019-Nov-17 04:32 284 2 gusting 9 10.6
2019-Nov-17 04:16 351 0 gusting 6 11.1
2019-Nov-17 04:01 344 11.1
2019-Nov-17 03:47 320 1 gusting 8 11.1
2019-Nov-17 03:31 355 2 gusting 8 11.1
2019-Nov-17 03:16 292 2 gusting 13 11.1
2019-Nov-17 03:02 346 2 gusting 10 11.7
2019-Nov-17 02:47 317 4 gusting 11 11.7
2019-Nov-17 02:31 339 2 gusting 12 12.2
2019-Nov-17 02:16 310 1 gusting 9 12.2
2019-Nov-17 02:00 249 1 gusting 11 12.8
2019-Nov-17 01:48 292 1 gusting 10 12.8
2019-Nov-17 01:30 320 4 gusting 10 12.8
2019-Nov-17 01:15 276 4 gusting 11 12.8
2019-Nov-17 01:00 297 3 gusting 12 13.3
2019-Nov-17 00:45 301 3 gusting 12 13.3
2019-Nov-17 00:30 289 0 gusting 11 13.3
2019-Nov-17 00:15 282 3 gusting 12 13.3
2019-Nov-17 00:00 281 1 gusting 12 13.3
2019-Nov-16 23:45 251 2 gusting 12 13.3
2019-Nov-16 23:30 355 3 gusting 13 13.3
2019-Nov-16 23:15 295 4 gusting 11 13.3
2019-Nov-16 23:00 275 3 gusting 10 13.9
2019-Nov-16 22:45 303 4 gusting 9 13.9
2019-Nov-16 22:30 286 3 gusting 12 13.9
2019-Nov-16 22:18 259 3 gusting 11 13.9
2019-Nov-16 22:02 271 1 gusting 8 13.9
2019-Nov-16 21:46 293 2 gusting 12 14.4
2019-Nov-16 21:33 293 1 gusting 10 14.4
2019-Nov-16 21:16 246 4 gusting 10 14.4
2019-Nov-16 21:02 260 4 gusting 12 15.0
2019-Nov-16 20:46 281 2 gusting 9 15.0
2019-Nov-16 20:32 311 4 gusting 10 15.0
2019-Nov-16 20:16 287 2 gusting 11 15.6
2019-Nov-16 20:01 280 0 gusting 10 15.6
2019-Nov-16 19:46 280 1 gusting 10 15.6
2019-Nov-16 19:31 279 2 gusting 10 15.6
2019-Nov-16 19:17 278 3 gusting 11 15.6
2019-Nov-16 19:01 244 3 gusting 9 16.1
2019-Nov-16 18:46 277 2 gusting 11 16.1
2019-Nov-16 18:31 269 1 gusting 10 16.1
2019-Nov-16 18:16 264 1 gusting 13 16.1
2019-Nov-16 18:01 292 1 gusting 10 16.7
2019-Nov-16 17:46 251 3 gusting 8 16.7
2019-Nov-16 17:31 238 4 gusting 14 16.1
2019-Nov-16 17:15 276 2 gusting 13 16.7
2019-Nov-16 17:00 293 3 gusting 10 16.7
2019-Nov-16 16:46 281 1 gusting 11 16.7
2019-Nov-16 16:30 254 2 gusting 10 16.7
2019-Nov-16 16:15 265 4 gusting 13 16.1
2019-Nov-16 16:01 294 2 gusting 9 16.1
2019-Nov-16 15:45 265 3 gusting 9 15.6
2019-Nov-16 15:30 257 15.6
2019-Nov-16 15:15 316 0 gusting 6 15.6
2019-Nov-16 15:01 279 1 gusting 7 15.6
2019-Nov-16 14:46 263 2 gusting 6 15.6
2019-Nov-16 14:31 276 0 gusting 10 15.6
2019-Nov-16 14:16 252 1 gusting 8 15.6
2019-Nov-16 13:45 280 0 gusting 10 16.1
2019-Nov-16 13:30 255 16.1
2019-Nov-16 13:15 273 16.1
2019-Nov-16 13:00 250 2 gusting 10 16.1
2019-Nov-16 12:45 219 2 gusting 11 16.1
2019-Nov-16 12:30 307 3 gusting 11 16.1
2019-Nov-16 12:17 219 1 gusting 10 16.7
2019-Nov-16 12:01 266 2 gusting 8 16.7
2019-Nov-16 11:46 215 0 gusting 7 16.7
2019-Nov-16 11:31 288 4 gusting 11 16.7
2019-Nov-16 11:16 218 2 gusting 10 16.7
2019-Nov-16 11:01 248 4 gusting 13 16.7
2019-Nov-16 10:46 246 3 gusting 11 17.2
2019-Nov-16 10:31 278 2 gusting 8 17.2
2019-Nov-16 10:15 238 2 gusting 10 17.2
2019-Nov-16 10:01 271 2 gusting 11 17.2
2019-Nov-16 09:47 232 3 gusting 7 17.2
2019-Nov-16 09:30 256 3 gusting 8 17.2
2019-Nov-16 09:16 265 1 gusting 9 17.2
2019-Nov-16 09:01 275 0 gusting 7 17.2
2019-Nov-16 08:46 259 1 gusting 8 17.2
2019-Nov-16 08:31 251 2 gusting 8 16.7
2019-Nov-16 08:16 210 0 gusting 4 16.7
2019-Nov-16 08:01 257 17.2
2019-Nov-16 07:46 254 1 gusting 8 17.2
2019-Nov-16 07:31 258 2 gusting 8 17.2
2019-Nov-16 07:16 227 2 gusting 7 17.2
2019-Nov-16 07:00 273 1 gusting 8 17.2
2019-Nov-16 06:45 277 1 gusting 8 17.2
2019-Nov-16 06:31 284 2 gusting 7 17.2
2019-Nov-16 06:15 249 1 gusting 9 17.2
2019-Nov-16 06:01 248 1 gusting 8 17.2
2019-Nov-16 05:45 273 1 gusting 8 17.2
2019-Nov-16 05:31 261 1 gusting 13 17.2
2019-Nov-16 05:15 270 1 gusting 10 17.2
2019-Nov-16 05:00 241 1 gusting 8 17.2
2019-Nov-16 04:45 238 1 gusting 9 17.2
2019-Nov-16 04:30 236 0 gusting 7 17.2
2019-Nov-16 04:15 277 2 gusting 12 17.2
2019-Nov-16 04:00 265 1 gusting 6 17.2
2019-Nov-16 03:45 250 3 gusting 9 17.8
2019-Nov-16 03:30 278 2 gusting 12 17.8
2019-Nov-16 03:17 238 1 gusting 9 17.8
2019-Nov-16 03:02 229 1 gusting 11 17.8
2019-Nov-16 02:47 284 3 gusting 11 17.8
2019-Nov-16 02:33 271 17.8
2019-Nov-16 02:17 263 4 gusting 10 17.8
2019-Nov-16 02:01 308 2 gusting 8 18.3
2019-Nov-16 01:47 260 2 gusting 12 18.3
2019-Nov-16 01:31 267 1 gusting 9 18.3
2019-Nov-16 01:16 320 3 gusting 11 18.3
2019-Nov-16 01:02 277 0 gusting 6 18.3
2019-Nov-16 00:46 287 18.3
2019-Nov-16 00:30 272 0 gusting 6 18.3
2019-Nov-16 00:16 314 1 gusting 11 18.3
2019-Nov-16 00:02 290 0 gusting 6 18.3
2019-Nov-15 23:46 323 2 gusting 9 18.3
2019-Nov-15 23:31 339 1 gusting 6 18.3
2019-Nov-15 23:16 304 1 gusting 7 18.3
2019-Nov-15 23:01 273 1 gusting 7 18.3
2019-Nov-15 22:45 298 0 gusting 8 18.3
2019-Nov-15 22:31 269 0 gusting 7 18.3
2019-Nov-15 22:16 235 2 gusting 9 18.3
2019-Nov-15 22:01 274 3 gusting 10 18.9
2019-Nov-15 21:45 259 1 gusting 9 18.9
2019-Nov-15 21:31 289 3 gusting 10 18.9
2019-Nov-15 21:15 255 2 gusting 13 18.9
2019-Nov-15 21:00 278 19.4
2019-Nov-15 20:45 279 3 gusting 10 19.4
2019-Nov-15 20:31 293 3 gusting 11 19.4
2019-Nov-15 20:15 275 1 gusting 9 19.4
2019-Nov-15 20:00 273 2 gusting 9 19.4
2019-Nov-15 19:45 246 1 gusting 8 19.4
2019-Nov-15 19:30 280 0 gusting 9 20.0
2019-Nov-15 19:16 284 2 gusting 8 19.4
2019-Nov-15 19:01 281 1 gusting 8 20.0
2019-Nov-15 18:45 261 1 gusting 8 20.0
2019-Nov-15 18:30 260 2 gusting 8 20.0
2019-Nov-15 18:15 265 0 gusting 9 20.6
2019-Nov-15 18:00 247 2 gusting 8 20.0